Location: Henau
(47.4548°N, 9.1164°E)
Time: 07:30:31
(UTC+00:00)

Meteor 2-20 Rocket - Pass Details

Date: 03 March 2021
Orbit: 941 x 959 km, 82.5° (Epoch: 12 April)

Event Time Altitude Azimuth Distance (km) Brightness Sun altitude
Rises 19:40:39 0° 352° (N) 3,622 7.8 -25.6°
Reaches altitude 10° 19:43:10 10° 355° (N) 2,675 7.1 -26.0°
Enters shadow 19:49:11 68° 73° (ENE) 1,020 4.3 -27.0°
